Rochester/St. Mary\'s Hospita, MN

4:12 PM CST on January 17, 2018 (GMT -0600)
Rochester/St. Mary\'s Hospita

Weather History for K9MN - April, 2014

Change the Weather History Date:

Wednesday, April 30, 2014

  Actual Average (KRST) Record (KRST)
Temperature  
Mean Temperature 36 °F -  
Max Temperature 41 °F 61 °F 90 °F (1952)
Min Temperature 32 °F 39 °F 11 °F (1956)
Degree Days  
Heating Degree Days 28    
Moisture  
Dew Point 35 °F    
Average Humidity 94    
Maximum Humidity 99    
Minimum Humidity 85    
Precipitation  
Precipitation 0.07 in - - ()
Sea Level Pressure  
Sea Level Pressure 29.70 in    
Wind  
Wind Speed 8 mph (NW)    
Max Wind Speed 13 mph    
Max Gust Speed 21 mph    
Visibility 8 miles    
Events      
Averages and records for this station are not official NWS values.
T = Trace of Precipitation, MM = Missing Value Source: NWS Daily Summary

Daily Weather History Graph

Daily Weather History Graph

Search for Another Location

Airport or City:

Trip Planner

Search our weather history database for the weather conditions in past years. The results will help you decide how hot, cold, wet, or windy it might be!

Date:

Astronomy

Apr. 30, 2014 Rise Set
Actual Time 6:02 AM CDT 8:12 PM CDT
Civil Twilight 5:31 AM CDT 8:43 PM CDT
Nautical Twilight 4:52 AM CDT 9:22 PM CDT
Astronomical Twilight 4:09 AM CDT 10:06 PM CDT
Moon 7:03 AM CDT (4/30) 9:53 PM CDT (4/30)
Length of Visible Light 15h 12m
Length of Day
14h 09m
New Moon, 2% of the Moon is Illuminated
Apr 30
New Moon
May 6
First Quarter
May 14
Full
May 21
Last Quarter
May 28
New

Hourly Weather History & Observations

Time (CDT) Temp. Windchill Dew Point Humidity Pressure Visibility Wind Dir Wind Speed Gust Speed Precip Events Conditions
12:12 AM 32.4 °F 25.3 °F 32.0 °F 99% 29.68 in 4.0 mi NW 8.1 mph - N/A   Overcast
12:32 AM 32.5 °F 25.5 °F 32.0 °F 98% 29.68 in 5.0 mi NW 8.1 mph - N/A   Overcast
12:53 AM 32.5 °F 26.2 °F 32.0 °F 98% 29.68 in 10.0 mi NW 6.9 mph - N/A   Overcast
1:12 AM 32.9 °F 25.9 °F 32.2 °F 97% 29.68 in 10.0 mi NW 8.1 mph - N/A   Overcast
1:32 AM 33.1 °F 27.7 °F 32.5 °F 98% 29.68 in 7.0 mi NW 5.8 mph - N/A   Overcast
1:53 AM 33.1 °F 26.9 °F 32.5 °F 98% 29.68 in 7.0 mi WNW 6.9 mph - N/A   Overcast
2:12 AM 33.3 °F 27.1 °F 32.9 °F 99% 29.67 in 7.0 mi NW 6.9 mph - N/A   Overcast
2:32 AM 33.4 °F 28.1 °F 32.9 °F 98% 29.67 in 7.0 mi NW 5.8 mph - N/A   Overcast
2:53 AM 33.4 °F 25.9 °F 32.9 °F 98% 29.68 in 5.0 mi NW 9.2 mph - N/A   Overcast
3:12 AM 33.4 °F 28.1 °F 32.9 °F 98% 29.68 in 5.0 mi NNW 5.8 mph - N/A   Overcast
3:32 AM 33.8 °F 27.7 °F 32.9 °F 96% 29.68 in 5.0 mi NW 6.9 mph - N/A   Overcast
3:53 AM 33.6 °F 27.5 °F 32.9 °F 97% 29.68 in 4.0 mi NW 6.9 mph - N/A   Overcast
4:12 AM 33.8 °F 27.7 °F 33.1 °F 97% 29.68 in 4.0 mi NW 6.9 mph - N/A   Overcast
4:32 AM 33.6 °F 28.4 °F 33.1 °F 98% 29.68 in 4.0 mi NW 5.8 mph - N/A   Overcast
4:53 AM 33.4 °F 27.3 °F 32.9 °F 98% 29.68 in 5.0 mi NW 6.9 mph - N/A   Overcast
5:12 AM 33.4 °F 26.6 °F 32.9 °F 98% 29.68 in 7.0 mi NW 8.1 mph - N/A   Overcast
5:32 AM 33.8 °F 27.0 °F 33.3 °F 98% 29.69 in 7.0 mi NW 8.1 mph - N/A   Overcast
6:12 AM 34.0 °F 28.8 °F 33.4 °F 98% 29.69 in 7.0 mi NW 5.8 mph - N/A   Overcast
6:32 AM 34.0 °F 28.0 °F 33.4 °F 98% 29.69 in 7.0 mi NW 6.9 mph - N/A   Overcast
6:53 AM 34.5 °F 27.9 °F 34.0 °F 98% 29.69 in 7.0 mi NW 8.1 mph - N/A   Overcast
7:12 AM 34.7 °F 27.5 °F 34.2 °F 98% 29.68 in 7.0 mi NW 9.2 mph - N/A   Overcast
7:32 AM 34.7 °F 28.8 °F 34.2 °F 98% 29.68 in 7.0 mi NW 6.9 mph - N/A   Overcast
7:52 AM 34.9 °F 29.9 °F 34.5 °F 99% 29.69 in 10.0 mi NNW 5.8 mph - N/A   Overcast
8:12 AM 35.2 °F 29.5 °F 34.7 °F 98% 29.69 in 10.0 mi NW 6.9 mph - N/A   Overcast
8:32 AM 35.2 °F 27.6 °F 34.7 °F 98% 29.68 in 10.0 mi NW 10.4 mph - N/A   Overcast
8:52 AM 35.6 °F 29.9 °F 34.7 °F 97% 29.69 in 10.0 mi NW 6.9 mph - N/A   Overcast
9:12 AM 35.6 °F 29.2 °F 34.7 °F 97% 29.70 in 10.0 mi NNW 8.1 mph - N/A   Overcast
9:32 AM 35.8 °F 29.4 °F 34.7 °F 96% 29.70 in 10.0 mi NW 8.1 mph - N/A   Overcast
10:12 AM 36.1 °F 29.9 °F 34.7 °F 94% 29.70 in 10.0 mi NW 8.1 mph - N/A   Overcast
10:33 AM 36.9 °F 30.1 °F 35.2 °F 94% 29.70 in 10.0 mi NW 9.2 mph - N/A   Overcast
10:52 AM 37.4 °F 30.8 °F 35.2 °F 92% 29.70 in 10.0 mi NW 9.2 mph - N/A   Overcast
11:12 AM 37.2 °F 30.0 °F 35.2 °F 93% 29.70 in 10.0 mi WNW 10.4 mph 17.3 mph N/A   Overcast
11:33 AM 37.4 °F 32.1 °F 35.4 °F 93% 29.71 in 10.0 mi WNW 6.9 mph - N/A   Overcast
11:52 AM 37.4 °F 30.8 °F 35.2 °F 92% 29.71 in 10.0 mi NW 9.2 mph - N/A   Overcast
12:12 PM 37.9 °F 32.7 °F 35.6 °F 91% 29.71 in 10.0 mi NNW 6.9 mph - N/A   Overcast
12:33 PM 38.5 °F 32.7 °F 35.6 °F 89% 29.70 in 10.0 mi NW 8.1 mph - N/A   Overcast
12:52 PM 38.8 °F 31.6 °F 35.8 °F 89% 29.70 in 10.0 mi WNW 11.5 mph 17.3 mph N/A   Overcast
1:12 PM 39.2 °F 35.9 °F 35.8 °F 88% 29.71 in 10.0 mi NNW 4.6 mph - N/A   Overcast
1:33 PM 39.9 °F 36.7 °F 36.0 °F 86% 29.71 in 10.0 mi NW 4.6 mph - N/A   Overcast
1:52 PM 39.9 °F 35.1 °F 35.8 °F 85% 29.71 in 10.0 mi NNW 6.9 mph - N/A   Overcast
2:12 PM 40.1 °F 35.3 °F 36.0 °F 85% 29.71 in 10.0 mi NW 6.9 mph - N/A   Overcast
2:33 PM 40.1 °F 33.6 °F 36.0 °F 85% 29.71 in 10.0 mi NW 10.4 mph - N/A   Overcast
2:52 PM 40.5 °F 35.1 °F 36.1 °F 85% 29.71 in 10.0 mi NW 8.1 mph 16.1 mph N/A   Overcast
3:12 PM 40.3 °F 34.9 °F 36.0 °F 85% 29.71 in 10.0 mi NW 8.1 mph 17.3 mph N/A   Overcast
3:33 PM 40.5 °F 35.8 °F 36.5 °F 86% 29.71 in 10.0 mi NW 6.9 mph - N/A   Overcast
3:52 PM 40.5 °F 34.6 °F 36.5 °F 86% 29.72 in 10.0 mi NW 9.2 mph - N/A   Overcast
4:12 PM 40.3 °F 34.9 °F 36.1 °F 85% 29.72 in 10.0 mi NNW 8.1 mph - N/A   Overcast
4:33 PM 40.6 °F 35.4 °F 36.5 °F 85% 29.71 in 10.0 mi NNW 8.1 mph - N/A   Overcast
4:52 PM 41.0 °F 36.4 °F 36.9 °F 85% 29.72 in 10.0 mi NW 6.9 mph - N/A   Overcast
5:12 PM 40.3 °F 33.9 °F 37.4 °F 89% 29.71 in 10.0 mi NNW 10.4 mph - N/A   Overcast
5:33 PM 40.3 °F 34.4 °F 37.4 °F 89% 29.71 in 10.0 mi NNW 9.2 mph - N/A   Overcast
5:52 PM 40.3 °F 37.1 °F 37.6 °F 90% 29.72 in 5.0 mi NNW 4.6 mph - N/A   Overcast
6:12 PM 40.1 °F 34.1 °F 37.8 °F 91% 29.72 in 5.0 mi NW 9.2 mph - N/A   Overcast
6:32 PM 40.1 °F 34.7 °F 38.3 °F 93% 29.72 in 5.0 mi NW 8.1 mph - N/A   Overcast
6:52 PM 40.1 °F 35.3 °F 38.3 °F 93% 29.72 in 5.0 mi NW 6.9 mph - N/A   Overcast
7:12 PM 39.7 °F 35.6 °F 38.3 °F 95% 29.72 in 5.0 mi NW 5.8 mph - N/A   Overcast
7:32 PM 39.7 °F 35.6 °F 38.5 °F 95% 29.72 in 4.0 mi NNW 5.8 mph - N/A   Overcast
7:52 PM 39.7 °F 34.3 °F 38.5 °F 95% 29.72 in 5.0 mi NW 8.1 mph - N/A   Overcast
8:12 PM 39.7 °F 36.5 °F 38.5 °F 95% 29.72 in 5.0 mi NNW 4.6 mph - N/A   Overcast
8:32 PM 39.4 °F 32.7 °F 38.1 °F 95% 29.72 in 5.0 mi NW 10.4 mph 17.3 mph 0.01 in   Overcast
8:52 PM 39.2 °F 33.0 °F 38.1 °F 96% 29.72 in 5.0 mi NW 9.2 mph - 0.01 in   Overcast
9:13 PM 39.0 °F 33.4 °F 37.9 °F 96% 29.72 in 5.0 mi NW 8.1 mph 17.3 mph N/A   Overcast
9:32 PM 39.2 °F 33.6 °F 37.9 °F 95% 29.72 in 7.0 mi NW 8.1 mph - 0.01 in   Overcast
9:52 PM 39.0 °F 33.4 °F 37.8 °F 95% 29.72 in 10.0 mi NW 8.1 mph - 0.02 in   Overcast
10:13 PM 38.5 °F 30.7 °F 37.0 °F 95% 29.72 in 10.0 mi NW 12.7 mph 18.4 mph 0.01 in   Overcast
10:32 PM 38.5 °F 31.1 °F 36.7 °F 93% 29.72 in 10.0 mi NW 11.5 mph 19.6 mph 0.02 in   Overcast
10:52 PM 38.5 °F 31.1 °F 36.7 °F 93% 29.71 in 10.0 mi NW 11.5 mph 17.3 mph 0.02 in   Overcast
11:12 PM 38.5 °F 32.7 °F 36.7 °F 93% 29.71 in 10.0 mi NW 8.1 mph 18.4 mph N/A   Overcast
11:32 PM 38.3 °F 31.4 °F 36.5 °F 93% 29.70 in 10.0 mi NW 10.4 mph 20.7 mph 0.01 in   Overcast
11:53 PM 38.3 °F 31.4 °F 36.5 °F 93% 29.70 in 10.0 mi NW 10.4 mph 19.6 mph 0.02 in   Overcast